Date_Time,Julian_Date,Latitude,Longitude,Instrument_Depth,U,V,Speed,Direction
(yyyy-mm-dd hh:mn:ss UTC),(JD),(+ deg. North),(+ deg. East),(m),(cm/s),(cm/s),(cm/s),(deg True)
1993-03-17 22:10:00 UTC,2449064.423611,29.2600,-94.0642,0003,-26.50,0.10,26.5002,270.2162
1993-03-17 22:40:00 UTC,2449064.444444,29.2600,-94.0642,0003,-30.30,1.80,30.3534,273.3997
1993-03-17 23:10:00 UTC,2449064.465278,29.2600,-94.0642,0003,-27.90,6.60,28.6700,283.3092
1993-03-17 23:40:00 UTC,2449064.486111,29.2600,-94.0642,0003,-28.70,8.40,29.9040,286.3138
1993-03-18 00:10:00 UTC,2449064.506944,29.2600,-94.0642,0003,-26.90,6.90,27.7708,284.3865
1993-03-18 00:40:00 UTC,2449064.527778,29.2600,-94.0642,0003,-29.20,6.40,29.8931,282.3625
1993-03-18 01:10:00 UTC,2449064.548611,29.2600,-94.0642,0003,-25.20,6.00,25.9044,283.3925
1993-03-18 01:40:00 UTC,2449064.569444,29.2600,-94.0642,0003,-22.70,5.00,23.2441,282.4219
1993-03-18 02:10:00 UTC,2449064.590278,29.2600,-94.0642,0003,-21.70,4.70,22.2032,282.2209
1993-03-18 02:40:00 UTC,2449064.611111,29.2600,-94.0642,0003,-27.00,4.00,27.2947,278.4270
1993-03-18 03:10:00 UTC,2449064.631944,29.2600,-94.0642,0003,-34.90,2.00,34.9573,273.2798
1993-03-18 03:40:00 UTC,2449064.652778,29.2600,-94.0642,0003,-34.30,-0.40,34.3023,269.3318
1993-03-18 04:10:00 UTC,2449064.673611,29.2600,-94.0642,0003,-46.30,0.30,46.3010,270.3712
1993-03-18 04:40:00 UTC,2449064.694444,29.2600,-94.0642,0003,-43.50,2.50,43.5718,273.2892
1993-03-18 05:10:00 UTC,2449064.715278,29.2600,-94.0642,0003,-41.00,1.70,41.0352,272.3743
1993-03-18 05:40:00 UTC,2449064.736111,29.2600,-94.0642,0003,-40.10,2.30,40.1659,273.2827
1993-03-18 06:10:00 UTC,2449064.756944,29.2600,-94.0642,0003,-41.90,-2.00,41.9477,267.2672
1993-03-18 06:40:00 UTC,2449064.777778,29.2600,-94.0642,0003,-42.00,-1.20,42.0171,268.3634
1993-03-18 07:10:00 UTC,2449064.798611,29.2600,-94.0642,0003,-49.20,-4.90,49.4434,264.3125
1993-03-18 07:40:00 UTC,2449064.819444,29.2600,-94.0642,0003,-46.80,-7.10,47.3355,261.3735
1993-03-18 08:10:00 UTC,2449064.840278,29.2600,-94.0642,0003,-43.20,-6.60,43.7013,261.3137
1993-03-18 08:40:00 UTC,2449064.861111,29.2600,-94.0642,0003,-40.10,-5.40,40.4620,262.3305
1993-03-18 09:10:00 UTC,2449064.881944,29.2600,-94.0642,0003,-34.80,-6.60,35.4203,259.2611
1993-03-18 09:40:00 UTC,2449064.902778,29.2600,-94.0642,0003,-34.70,-9.10,35.8734,255.3052
1993-03-18 10:10:00 UTC,2449064.923611,29.2600,-94.0642,0003,-37.10,-7.00,37.7546,259.3151
1993-03-18 10:40:00 UTC,2449064.944444,29.2600,-94.0642,0003,-42.30,-10.30,43.5360,256.3149
1993-03-18 11:10:00 UTC,2449064.965278,29.2600,-94.0642,0003,-44.40,-5.20,44.7035,263.3201
1993-03-18 11:40:00 UTC,2449064.986111,29.2600,-94.0642,0003,-43.80,-2.80,43.8894,266.3422
1993-03-18 12:10:00 UTC,2449065.006944,29.2600,-94.0642,0003,-38.00,-0.50,38.0033,269.2462
1993-03-18 12:40:00 UTC,2449065.027778,29.2600,-94.0642,0003,-36.70,0.20,36.7005,270.3123
1993-03-18 13:10:00 UTC,2449065.048611,29.2600,-94.0642,0003,-34.10,2.60,34.1990,274.3602
1993-03-18 13:40:00 UTC,2449065.069444,29.2600,-94.0642,0003,-45.10,3.40,45.2280,274.3113
1993-03-18 14:10:00 UTC,2449065.090278,29.2600,-94.0642,0003,-33.30,2.50,33.3937,274.2935
1993-03-18 14:40:00 UTC,2449065.111111,29.2600,-94.0642,0003,-36.20,4.70,36.5038,277.3976
1993-03-18 15:10:00 UTC,2449065.131944,29.2600,-94.0642,0003,-41.00,3.80,41.1757,275.2952
1993-03-18 15:40:00 UTC,2449065.152778,29.2600,-94.0642,0003,-29.30,4.80,29.6906,279.3037
1993-03-18 16:10:00 UTC,2449065.173611,29.2600,-94.0642,0003,-33.70,9.90,35.1241,286.3711
1993-03-18 16:40:00 UTC,2449065.194444,29.2600,-94.0642,0003,-29.80,9.30,31.2175,287.3321
1993-03-18 17:10:00 UTC,2449065.215278,29.2600,-94.0642,0003,-34.20,6.90,34.8891,281.4066
1993-03-18 17:40:00 UTC,2449065.236111,29.2600,-94.0642,0003,-35.80,4.00,36.0228,276.3753
1993-03-18 18:10:00 UTC,2449065.256944,29.2600,-94.0642,0003,-34.80,0.80,34.8092,271.3169
1993-03-18 18:40:00 UTC,2449065.277778,29.2600,-94.0642,0003,-34.00,-2.20,34.0711,266.2978
1993-03-18 19:10:00 UTC,2449065.298611,29.2600,-94.0642,0003,-33.40,-1.00,33.4150,268.2851
1993-03-18 19:40:00 UTC,2449065.319444,29.2600,-94.0642,0003,-33.60,-1.00,33.6149,268.2953
1993-03-18 20:10:00 UTC,2449065.340278,29.2600,-94.0642,0003,-32.50,0.20,32.5006,270.3526
1993-03-18 20:40:00 UTC,2449065.361111,29.2600,-94.0642,0003,-33.90,3.20,34.0507,275.3925
1993-03-18 21:10:00 UTC,2449065.381944,29.2600,-94.0642,0003,-37.50,10.30,38.8888,285.3585
1993-03-18 21:40:00 UTC,2449065.402778,29.2600,-94.0642,0003,-36.20,12.00,38.1371,288.3399
1993-03-18 22:10:00 UTC,2449065.423611,29.2600,-94.0642,0003,-37.40,11.70,39.1874,287.3715
1993-03-18 22:40:00 UTC,2449065.444444,29.2600,-94.0642,0003,-33.60,7.30,34.3839,282.2577
1993-03-18 23:10:00 UTC,2449065.465278,29.2600,-94.0642,0003,-29.10,5.30,29.5787,280.3222
1993-03-18 23:40:00 UTC,2449065.486111,29.2600,-94.0642,0003,-28.60,3.70,28.8383,277.3715
1993-03-19 00:10:00 UTC,2449065.506944,29.2600,-94.0642,0003,-31.30,2.90,31.4341,275.2935
1993-03-19 00:40:00 UTC,2449065.527778,29.2600,-94.0642,0003,-34.90,2.60,34.9967,274.2606
1993-03-19 01:10:00 UTC,2449065.548611,29.2600,-94.0642,0003,-31.30,2.90,31.4341,275.2935
1993-03-19 01:40:00 UTC,2449065.569444,29.2600,-94.0642,0003,-30.10,2.30,30.1877,274.3696
1993-03-19 02:10:00 UTC,2449065.590278,29.2600,-94.0642,0003,-35.10,2.70,35.2037,274.3987
1993-03-19 02:40:00 UTC,2449065.611111,29.2600,-94.0642,0003,-33.10,4.80,33.4462,278.2512
1993-03-19 03:10:00 UTC,2449065.631944,29.2600,-94.0642,0003,-33.00,4.20,33.2662,277.2532
1993-03-19 03:40:00 UTC,2449065.652778,29.2600,-94.0642,0003,-29.50,2.20,29.5819,274.2650
1993-03-19 04:10:00 UTC,2449065.673611,29.2600,-94.0642,0003,-26.70,2.50,26.8168,275.3492
1993-03-19 04:40:00 UTC,2449065.694444,29.2600,-94.0642,0003,-30.10,7.70,31.0693,284.3493
1993-03-19 05:10:00 UTC,2449065.715278,29.2600,-94.0642,0003,-33.90,9.90,35.3160,286.2797
1993-03-19 05:40:00 UTC,2449065.736111,29.2600,-94.0642,0003,-33.70,12.50,35.9436,290.3508
1993-03-19 06:10:00 UTC,2449065.756944,29.2600,-94.0642,0003,-35.20,11.00,36.8787,287.3540
1993-03-19 06:40:00 UTC,2449065.777778,29.2600,-94.0642,0003,-36.70,9.40,37.8847,284.3664
1993-03-19 07:10:00 UTC,2449065.798611,29.2600,-94.0642,0003,-34.00,9.90,35.4120,286.2343
1993-03-19 07:40:00 UTC,2449065.819444,29.2600,-94.0642,0003,-34.60,8.20,35.5584,283.3328
1993-03-19 08:10:00 UTC,2449065.840278,29.2600,-94.0642,0003,-36.70,8.00,37.5618,282.2972
1993-03-19 08:40:00 UTC,2449065.861111,29.2600,-94.0642,0003,-40.90,5.20,41.2292,277.2457
1993-03-19 09:10:00 UTC,2449065.881944,29.2600,-94.0642,0003,-33.70,-1.60,33.7380,267.2818
1993-03-19 09:40:00 UTC,2449065.902778,29.2600,-94.0642,0003,-34.50,-0.40,34.5023,269.3358
1993-03-19 10:10:00 UTC,2449065.923611,29.2600,-94.0642,0003,-32.70,-3.30,32.8661,264.2374
1993-03-19 10:40:00 UTC,2449065.944444,29.2600,-94.0642,0003,-29.50,-7.70,30.4884,255.3712
1993-03-19 11:10:00 UTC,2449065.965278,29.2600,-94.0642,0003,-25.30,-8.60,26.7217,251.2260
1993-03-19 11:40:00 UTC,2449065.986111,29.2600,-94.0642,0003,-29.10,-8.70,30.3727,253.3550
1993-03-19 12:10:00 UTC,2449066.006944,29.2600,-94.0642,0003,-27.70,-11.60,30.0308,247.2774
1993-03-19 12:40:00 UTC,2449066.027778,29.2600,-94.0642,0003,-26.80,-11.20,29.0462,247.3194
1993-03-19 13:10:00 UTC,2449066.048611,29.2600,-94.0642,0003,-26.80,-10.10,28.6400,249.3503
1993-03-19 13:40:00 UTC,2449066.069444,29.2600,-94.0642,0003,-22.90,-8.70,24.4969,249.1976
1993-03-19 14:10:00 UTC,2449066.090278,29.2600,-94.0642,0003,-24.40,-12.80,27.5536,242.3189
1993-03-19 14:40:00 UTC,2449066.111111,29.2600,-94.0642,0003,-24.50,-20.30,31.8173,230.3558
1993-03-19 15:10:00 UTC,2449066.131944,29.2600,-94.0642,0003,-28.60,-18.40,34.0076,237.2445
1993-03-19 15:40:00 UTC,2449066.152778,29.2600,-94.0642,0003,-30.70,-17.50,35.3375,240.3155
1993-03-19 16:10:00 UTC,2449066.173611,29.2600,-94.0642,0003,-32.30,-14.80,35.5293,245.3825
1993-03-19 16:40:00 UTC,2449066.194444,29.2600,-94.0642,0003,-30.60,-16.10,34.5770,242.2492
1993-03-19 17:10:00 UTC,2449066.215278,29.2600,-94.0642,0003,-25.40,-21.10,33.0208,230.2833
1993-03-19 17:40:00 UTC,2449066.236111,29.2600,-94.0642,0003,-25.60,-19.80,32.3636,232.2803
1993-03-19 18:10:00 UTC,2449066.256944,29.2600,-94.0642,0003,-28.40,-22.70,36.3573,231.3648
1993-03-19 18:40:00 UTC,2449066.277778,29.2600,-94.0642,0003,-30.80,-23.80,38.9240,232.3058
1993-03-19 19:10:00 UTC,2449066.298611,29.2600,-94.0642,0003,-30.20,-25.00,39.2051,230.3816
1993-03-19 19:40:00 UTC,2449066.319444,29.2600,-94.0642,0003,-30.00,-24.90,38.9873,230.3073
1993-03-19 20:10:00 UTC,2449066.340278,29.2600,-94.0642,0003,-27.50,-19.00,33.4253,235.3591
1993-03-19 20:40:00 UTC,2449066.361111,29.2600,-94.0642,0003,-23.60,-12.40,26.6593,242.2815
1993-03-19 21:10:00 UTC,2449066.381944,29.2600,-94.0642,0003,-22.90,-11.50,25.6254,243.3350
1993-03-19 21:40:00 UTC,2449066.402778,29.2600,-94.0642,0003,-20.20,-10.60,22.8123,242.3116
1993-03-19 22:10:00 UTC,2449066.423611,29.2600,-94.0642,0003,-21.50,-8.50,23.1193,248.4287
1993-03-19 22:40:00 UTC,2449066.444444,29.2600,-94.0642,0003,-25.70,-6.20,26.4373,256.4368
1993-03-19 23:10:00 UTC,2449066.465278,29.2600,-94.0642,0003,-26.10,-6.40,26.8732,256.2223
1993-03-19 23:40:00 UTC,2449066.486111,29.2600,-94.0642,0003,-31.70,-3.20,31.8611,264.2357
1993-03-20 00:10:00 UTC,2449066.506944,29.2600,-94.0642,0003,-30.10,-5.10,30.5290,260.3834
1993-03-20 00:40:00 UTC,2449066.527778,29.2600,-94.0642,0003,-31.40,-3.70,31.6172,263.2796
1993-03-20 01:10:00 UTC,2449066.548611,29.2600,-94.0642,0003,-26.60,-4.10,26.9141,261.2377
1993-03-20 01:40:00 UTC,2449066.569444,29.2600,-94.0642,0003,-31.20,-3.10,31.3536,264.3258
1993-03-20 02:10:00 UTC,2449066.590278,29.2600,-94.0642,0003,-29.20,-3.90,29.4593,262.3925
1993-03-20 02:40:00 UTC,2449066.611111,29.2600,-94.0642,0003,-31.90,-4.90,32.2741,261.2673
1993-03-20 03:10:00 UTC,2449066.631944,29.2600,-94.0642,0003,-35.90,-3.60,36.0800,264.2736
1993-03-20 03:40:00 UTC,2449066.652778,29.2600,-94.0642,0003,-35.00,-3.50,35.1746,264.2894
1993-03-20 04:10:00 UTC,2449066.673611,29.2600,-94.0642,0003,-33.50,-3.90,33.7262,263.3596
1993-03-20 04:40:00 UTC,2449066.694444,29.2600,-94.0642,0003,-28.60,-4.40,28.9365,261.2538
1993-03-20 05:10:00 UTC,2449066.715278,29.2600,-94.0642,0003,-22.50,-0.30,22.5020,269.2361
1993-03-20 05:40:00 UTC,2449066.736111,29.2600,-94.0642,0003,-27.70,2.10,27.7795,274.3354
1993-03-20 06:10:00 UTC,2449066.756944,29.2600,-94.0642,0003,-33.90,2.60,33.9996,274.3858
1993-03-20 06:40:00 UTC,2449066.777778,29.2600,-94.0642,0003,-29.40,-4.00,29.6709,262.2522
1993-03-20 07:10:00 UTC,2449066.798611,29.2600,-94.0642,0003,-40.40,-6.20,40.8730,261.2751
1993-03-20 07:40:00 UTC,2449066.819444,29.2600,-94.0642,0003,-34.30,-10.90,35.9903,252.3706
1993-03-20 08:10:00 UTC,2449066.840278,29.2600,-94.0642,0003,-29.70,-14.30,32.9633,244.2901
1993-03-20 08:40:00 UTC,2449066.861111,29.2600,-94.0642,0003,-29.80,-14.30,33.0534,244.3653
1993-03-20 09:10:00 UTC,2449066.881944,29.2600,-94.0642,0003,-35.90,-29.80,46.6567,230.3045
1993-03-20 09:40:00 UTC,2449066.902778,29.2600,-94.0642,0003,-30.40,-27.10,40.7255,228.2847
1993-03-20 10:10:00 UTC,2449066.923611,29.2600,-94.0642,0003,-31.70,-30.30,43.8518,226.2936
1993-03-20 10:40:00 UTC,2449066.944444,29.2600,-94.0642,0003,-38.30,-35.30,52.0863,227.3341
1993-03-20 11:10:00 UTC,2449066.965278,29.2600,-94.0642,0003,-36.00,-25.80,44.2904,234.3721
1993-03-20 11:40:00 UTC,2449066.986111,29.2600,-94.0642,0003,-44.10,-16.60,47.1208,249.3728
1993-03-20 12:10:00 UTC,2449067.006944,29.2600,-94.0642,0003,-43.80,-17.40,47.1296,248.3340
1993-03-20 12:40:00 UTC,2449067.027778,29.2600,-94.0642,0003,-43.00,-12.90,44.8933,253.3008
1993-03-20 13:10:00 UTC,2449067.048611,29.2600,-94.0642,0003,-40.70,-14.50,43.2058,250.3908
1993-03-20 13:40:00 UTC,2449067.069444,29.2600,-94.0642,0003,-44.00,-14.00,46.1736,252.3499
1993-03-20 14:10:00 UTC,2449067.090278,29.2600,-94.0642,0003,-38.60,-9.40,39.7281,256.3135
1993-03-20 14:40:00 UTC,2449067.111111,29.2600,-94.0642,0003,-31.40,-4.20,31.6796,262.3815
1993-03-20 15:10:00 UTC,2449067.131944,29.2600,-94.0642,0003,-40.30,-6.20,40.7741,261.2538
1993-03-20 15:40:00 UTC,2449067.152778,29.2600,-94.0642,0003,-41.30,-7.00,41.8890,260.3803
1993-03-20 16:10:00 UTC,2449067.173611,29.2600,-94.0642,0003,-33.50,-0.40,33.5024,269.3159
1993-03-20 16:40:00 UTC,2449067.194444,29.2600,-94.0642,0003,-23.50,2.60,23.6434,276.3134
1993-03-20 17:10:00 UTC,2449067.215278,29.2600,-94.0642,0003,-25.60,1.50,25.6439,273.3533
1993-03-20 17:40:00 UTC,2449067.236111,29.2600,-94.0642,0003,-21.20,11.40,24.0707,298.2685
1993-03-20 18:10:00 UTC,2449067.256944,29.2600,-94.0642,0003,-18.20,12.00,21.8000,303.3985
1993-03-20 18:40:00 UTC,2449067.277778,29.2600,-94.0642,0003,-20.20,9.50,22.3224,295.1875
1993-03-20 19:10:00 UTC,2449067.298611,29.2600,-94.0642,0003,-30.60,4.50,30.9291,278.3659
1993-03-20 19:40:00 UTC,2449067.319444,29.2600,-94.0642,0003,-33.30,19.50,38.5894,300.3526
1993-03-20 20:10:00 UTC,2449067.340278,29.2600,-94.0642,0003,-32.10,23.60,39.8418,306.3234
1993-03-20 20:40:00 UTC,2449067.361111,29.2600,-94.0642,0003,-34.70,21.10,40.6116,301.3025
1993-03-20 21:10:00 UTC,2449067.381944,29.2600,-94.0642,0003,-40.10,21.60,45.5474,298.3093
1993-03-20 21:40:00 UTC,2449067.402778,29.2600,-94.0642,0003,-41.20,21.30,46.3803,297.3385
1993-03-20 22:10:00 UTC,2449067.423611,29.2600,-94.0642,0003,-37.80,18.70,42.1726,296.3220
1993-03-20 22:40:00 UTC,2449067.444444,29.2600,-94.0642,0003,-31.40,18.40,36.3940,300.3698
1993-03-20 23:10:00 UTC,2449067.465278,29.2600,-94.0642,0003,-31.10,16.10,35.0203,297.3699
1993-03-20 23:40:00 UTC,2449067.486111,29.2600,-94.0642,0003,-32.50,11.40,34.4414,289.3293
1993-03-21 00:10:00 UTC,2449067.506944,29.2600,-94.0642,0003,-31.60,6.90,32.3446,282.3174
1993-03-21 00:40:00 UTC,2449067.527778,29.2600,-94.0642,0003,-35.70,-5.40,36.1061,261.3986
1993-03-21 01:10:00 UTC,2449067.548611,29.2600,-94.0642,0003,-36.90,-6.90,37.5396,259.4085
1993-03-21 01:40:00 UTC,2449067.569444,29.2600,-94.0642,0003,-40.50,-11.40,42.0739,254.2791
1993-03-21 02:10:00 UTC,2449067.590278,29.2600,-94.0642,0003,-41.60,-8.60,42.4796,258.3198
1993-03-21 02:40:00 UTC,2449067.611111,29.2600,-94.0642,0003,-45.40,-9.40,46.3629,258.3023
1993-03-21 03:10:00 UTC,2449067.631944,29.2600,-94.0642,0003,-46.10,-14.70,48.3870,252.3140
1993-03-21 03:40:00 UTC,2449067.652778,29.2600,-94.0642,0003,-45.30,-18.00,48.7452,248.3296
1993-03-21 04:10:00 UTC,2449067.673611,29.2600,-94.0642,0003,-44.30,-15.90,47.0670,250.2561
1993-03-21 04:40:00 UTC,2449067.694444,29.2600,-94.0642,0003,-44.80,-13.40,46.7611,253.3477
1993-03-21 05:10:00 UTC,2449067.715278,29.2600,-94.0642,0003,-46.30,-12.10,47.8550,255.3539
1993-03-21 05:40:00 UTC,2449067.736111,29.2600,-94.0642,0003,-46.60,-9.60,47.5786,258.3594
1993-03-21 06:10:00 UTC,2449067.756944,29.2600,-94.0642,0003,-48.30,-10.00,49.3243,258.3028
1993-03-21 06:40:00 UTC,2449067.777778,29.2600,-94.0642,0003,-49.60,-5.80,49.9380,263.3304
1993-03-21 07:10:00 UTC,2449067.798611,29.2600,-94.0642,0003,-49.60,-4.10,49.7692,265.2746
1993-03-21 07:40:00 UTC,2449067.819444,29.2600,-94.0642,0003,-50.60,-4.10,50.7658,265.3676
1993-03-21 08:10:00 UTC,2449067.840278,29.2600,-94.0642,0003,-48.60,-5.70,48.9331,263.3107
1993-03-21 08:40:00 UTC,2449067.861111,29.2600,-94.0642,0003,-51.40,-7.80,51.9885,261.3712
1993-03-21 09:10:00 UTC,2449067.881944,29.2600,-94.0642,0003,-47.50,-7.30,48.0577,261.2629
1993-03-21 09:40:00 UTC,2449067.902778,29.2600,-94.0642,0003,-49.70,-6.70,50.1496,262.3223
1993-03-21 10:10:00 UTC,2449067.923611,29.2600,-94.0642,0003,-47.00,-8.00,47.6760,260.3401
1993-03-21 10:40:00 UTC,2449067.944444,29.2600,-94.0642,0003,-49.90,-11.20,51.1415,257.3497
1993-03-21 11:10:00 UTC,2449067.965278,29.2600,-94.0642,0003,-49.30,-12.00,50.7394,256.3198
1993-03-21 11:40:00 UTC,2449067.986111,29.2600,-94.0642,0003,-48.60,-15.50,51.0119,252.3110
1993-03-21 12:10:00 UTC,2449068.006944,29.2600,-94.0642,0003,-46.40,-13.00,48.1867,254.3486
1993-03-21 12:40:00 UTC,2449068.027778,29.2600,-94.0642,0003,-43.80,-15.70,46.5288,250.2799
1993-03-21 13:10:00 UTC,2449068.048611,29.2600,-94.0642,0003,-37.60,-11.30,39.2613,253.2728
1993-03-21 13:40:00 UTC,2449068.069444,29.2600,-94.0642,0003,-40.30,-10.60,41.6707,255.2634
1993-03-21 14:10:00 UTC,2449068.090278,29.2600,-94.0642,0003,-35.90,-11.40,37.6666,252.3828
1993-03-21 14:40:00 UTC,2449068.111111,29.2600,-94.0642,0003,-34.80,-10.40,36.3208,253.3612
1993-03-21 15:10:00 UTC,2449068.131944,29.2600,-94.0642,0003,-33.10,-10.50,34.7255,252.3999
1993-03-21 15:40:00 UTC,2449068.152778,29.2600,-94.0642,0003,-30.40,-9.10,31.7328,253.3354
1993-03-21 16:10:00 UTC,2449068.173611,29.2600,-94.0642,0003,-32.50,-7.90,33.4464,256.3377
1993-03-21 16:40:00 UTC,2449068.194444,29.2600,-94.0642,0003,-30.20,-6.20,30.8299,258.3985
1993-03-21 17:10:00 UTC,2449068.215278,29.2600,-94.0642,0003,-30.40,-3.60,30.6124,263.2464
1993-03-21 17:40:00 UTC,2449068.236111,29.2600,-94.0642,0003,-35.80,-4.80,36.1204,262.3634
1993-03-21 18:10:00 UTC,2449068.256944,29.2600,-94.0642,0003,-41.60,-9.40,42.6488,257.2672
1993-03-21 18:40:00 UTC,2449068.277778,29.2600,-94.0642,0003,-43.90,-8.30,44.6777,259.2937
1993-03-21 19:10:00 UTC,2449068.298611,29.2600,-94.0642,0003,-46.80,-12.30,48.3894,255.2745
1993-03-21 19:40:00 UTC,2449068.319444,29.2600,-94.0642,0003,-49.30,-13.80,51.1950,254.3621
1993-03-21 20:10:00 UTC,2449068.340278,29.2600,-94.0642,0003,-49.10,-16.60,51.8302,251.3203
1993-03-21 20:40:00 UTC,2449068.361111,29.2600,-94.0642,0003,-47.00,-15.90,49.6166,251.3094
1993-03-21 21:10:00 UTC,2449068.381944,29.2600,-94.0642,0003,-44.40,-10.00,45.5122,257.3073
1993-03-21 21:40:00 UTC,2449068.402778,29.2600,-94.0642,0003,-40.70,-11.40,42.2664,254.3525
1993-03-21 22:10:00 UTC,2449068.423611,29.2600,-94.0642,0003,-39.00,-13.90,41.4030,250.3834
1993-03-21 22:40:00 UTC,2449068.444444,29.2600,-94.0642,0003,-36.40,-13.70,38.8928,249.3750
1993-03-21 23:10:00 UTC,2449068.465278,29.2600,-94.0642,0003,-35.10,-12.60,37.2930,250.2532
1993-03-21 23:40:00 UTC,2449068.486111,29.2600,-94.0642,0003,-34.80,-14.50,37.7000,247.3801
1993-03-22 00:10:00 UTC,2449068.506944,29.2600,-94.0642,0003,-33.20,-14.60,36.2684,246.2621
1993-03-22 00:40:00 UTC,2449068.527778,29.2600,-94.0642,0003,-28.90,-12.70,31.5674,246.2771
1993-03-22 01:10:00 UTC,2449068.548611,29.2600,-94.0642,0003,-29.30,-14.70,32.7808,243.3568
1993-03-22 01:40:00 UTC,2449068.569444,29.2600,-94.0642,0003,-28.10,-14.10,31.4391,243.3535
1993-03-22 02:10:00 UTC,2449068.590278,29.2600,-94.0642,0003,-26.40,-12.70,29.2959,244.3096
1993-03-22 02:40:00 UTC,2449068.611111,29.2600,-94.0642,0003,-29.70,-15.60,33.5477,242.2892
1993-03-22 03:10:00 UTC,2449068.631944,29.2600,-94.0642,0003,-26.40,-12.10,29.0408,245.3764
1993-03-22 03:40:00 UTC,2449068.652778,29.2600,-94.0642,0003,-27.00,-8.60,28.3365,252.3324
1993-03-22 04:10:00 UTC,2449068.673611,29.2600,-94.0642,0003,-26.60,-3.60,26.8425,262.2925
1993-03-22 04:40:00 UTC,2449068.694444,29.2600,-94.0642,0003,-21.80,-2.90,21.9920,262.4226
1993-03-22 05:10:00 UTC,2449068.715278,29.2600,-94.0642,0003,-27.20,-1.80,27.2595,266.2139
1993-03-22 05:40:00 UTC,2449068.736111,29.2600,-94.0642,0003,-27.10,-2.70,27.2342,264.3104
1993-03-22 06:10:00 UTC,2449068.756944,29.2600,-94.0642,0003,-23.20,-7.40,24.3516,252.3091
1993-03-22 06:40:00 UTC,2449068.777778,29.2600,-94.0642,0003,-22.40,-9.80,24.4499,246.3706
1993-03-22 07:10:00 UTC,2449068.798611,29.2600,-94.0642,0003,-25.50,-6.70,26.3655,255.2786
1993-03-22 07:40:00 UTC,2449068.819444,29.2600,-94.0642,0003,-22.70,-2.30,22.8162,264.2144
1993-03-22 08:10:00 UTC,2449068.840278,29.2600,-94.0642,0003,-18.90,-0.20,18.9011,269.3937
1993-03-22 08:40:00 UTC,2449068.861111,29.2600,-94.0642,0003,-17.60,1.00,17.6284,273.2520
1993-03-22 09:10:00 UTC,2449068.881944,29.2600,-94.0642,0003,-16.60,1.30,16.6508,274.4779
1993-03-22 09:40:00 UTC,2449068.902778,29.2600,-94.0642,0003,-17.30,-0.50,17.3072,268.3445
1993-03-22 10:10:00 UTC,2449068.923611,29.2600,-94.0642,0003,-17.40,-2.40,17.5647,262.1467
1993-03-22 10:40:00 UTC,2449068.944444,29.2600,-94.0642,0003,-16.70,-6.00,17.7451,250.2376
1993-03-22 11:10:00 UTC,2449068.965278,29.2600,-94.0642,0003,-16.10,-6.10,17.2169,249.2492
1993-03-22 11:40:00 UTC,2449068.986111,29.2600,-94.0642,0003,-17.70,-8.10,19.4654,245.4099
1993-03-22 12:10:00 UTC,2449069.006944,29.2600,-94.0642,0003,-20.10,-12.40,23.6172,238.3289
1993-03-22 12:40:00 UTC,2449069.027778,29.2600,-94.0642,0003,-22.00,-13.10,25.6049,239.2281
1993-03-22 13:10:00 UTC,2449069.048611,29.2600,-94.0642,0003,-22.60,-13.40,26.2739,239.3354
1993-03-22 13:40:00 UTC,2449069.069444,29.2600,-94.0642,0003,-20.60,-12.20,23.9416,239.3646
1993-03-22 14:10:00 UTC,2449069.090278,29.2600,-94.0642,0003,-21.30,-12.10,24.4969,240.4002
1993-03-22 14:40:00 UTC,2449069.111111,29.2600,-94.0642,0003,-20.40,-11.10,23.2243,241.4486
1993-03-22 15:10:00 UTC,2449069.131944,29.2600,-94.0642,0003,-18.50,-10.10,21.0775,241.3679
1993-03-22 15:40:00 UTC,2449069.152778,29.2600,-94.0642,0003,-18.30,-9.20,20.4824,243.3099
1993-03-22 16:10:00 UTC,2449069.173611,29.2600,-94.0642,0003,-18.10,-7.20,19.4795,248.3078
1993-03-22 16:40:00 UTC,2449069.194444,29.2600,-94.0642,0003,-19.20,-3.60,19.5346,259.3803
1993-03-22 17:10:00 UTC,2449069.215278,29.2600,-94.0642,0003,-20.90,-5.10,21.5133,256.2867
1993-03-22 17:40:00 UTC,2449069.236111,29.2600,-94.0642,0003,-22.40,-5.90,23.1640,255.2439
1993-03-22 18:10:00 UTC,2449069.256944,29.2600,-94.0642,0003,-24.30,-5.00,24.8091,258.3730
1993-03-22 18:40:00 UTC,2449069.277778,29.2600,-94.0642,0003,-25.80,-3.00,25.9738,263.3675
1993-03-22 19:10:00 UTC,2449069.298611,29.2600,-94.0642,0003,-25.80,-4.40,26.1725,260.3217
1993-03-22 19:40:00 UTC,2449069.319444,29.2600,-94.0642,0003,-20.80,-1.30,20.8406,266.4237
1993-03-22 20:10:00 UTC,2449069.340278,29.2600,-94.0642,0003,-20.50,-5.00,21.1009,256.2930
1993-03-22 20:40:00 UTC,2449069.361111,29.2600,-94.0642,0003,-21.30,-6.00,22.1289,254.2680
1993-03-22 21:10:00 UTC,2449069.381944,29.2600,-94.0642,0003,-19.70,-6.70,20.8082,251.2168
1993-03-22 21:40:00 UTC,2449069.402778,29.2600,-94.0642,0003,-21.00,-10.60,23.5236,243.2171
1993-03-22 22:10:00 UTC,2449069.423611,29.2600,-94.0642,0003,-23.90,-5.80,24.5937,256.3593
1993-03-22 22:40:00 UTC,2449069.444444,29.2600,-94.0642,0003,-30.20,-3.00,30.3486,264.3270
1993-03-22 23:10:00 UTC,2449069.465278,29.2600,-94.0642,0003,-29.80,-4.00,30.0673,262.3550
1993-03-22 23:40:00 UTC,2449069.486111,29.2600,-94.0642,0003,-28.90,-12.70,31.5674,246.2771
1993-03-23 00:10:00 UTC,2449069.506944,29.2600,-94.0642,0003,-25.30,-13.30,28.5829,242.2695
1993-03-23 00:40:00 UTC,2449069.527778,29.2600,-94.0642,0003,-27.40,-16.90,32.1927,238.3342
1993-03-23 01:10:00 UTC,2449069.548611,29.2600,-94.0642,0003,-25.60,-15.80,30.0832,238.3176
1993-03-23 01:40:00 UTC,2449069.569444,29.2600,-94.0642,0003,-24.40,-13.90,28.0815,240.3311
1993-03-23 02:10:00 UTC,2449069.590278,29.2600,-94.0642,0003,-24.50,-15.10,28.7795,238.3534
1993-03-23 02:40:00 UTC,2449069.611111,29.2600,-94.0642,0003,-21.80,-13.40,25.5891,238.4218
1993-03-23 03:10:00 UTC,2449069.631944,29.2600,-94.0642,0003,-19.50,-13.00,23.4361,236.3099
1993-03-23 03:40:00 UTC,2449069.652778,29.2600,-94.0642,0003,-18.40,-10.90,21.3862,239.3579
1993-03-23 04:10:00 UTC,2449069.673611,29.2600,-94.0642,0003,-17.60,-8.10,19.3745,245.2868
1993-03-23 04:40:00 UTC,2449069.694444,29.2600,-94.0642,0003,-15.60,-13.40,20.5650,229.3383
1993-03-23 05:10:00 UTC,2449069.715278,29.2600,-94.0642,0003,-15.50,-14.80,21.4311,226.3234
1993-03-23 05:40:00 UTC,2449069.736111,29.2600,-94.0642,0003,-19.00,-17.00,25.4951,228.1798
1993-03-23 06:10:00 UTC,2449069.756944,29.2600,-94.0642,0003,-20.60,-9.50,22.6850,245.2425
1993-03-23 06:40:00 UTC,2449069.777778,29.2600,-94.0642,0003,-20.80,-6.20,21.7044,253.4019
1993-03-23 07:10:00 UTC,2449069.798611,29.2600,-94.0642,0003,-27.30,-5.60,27.8684,258.4078
1993-03-23 07:40:00 UTC,2449069.819444,29.2600,-94.0642,0003,-19.00,-1.20,19.0379,266.3861
1993-03-23 08:10:00 UTC,2449069.840278,29.2600,-94.0642,0003,-14.30,2.60,14.5344,280.3049